Regional Weather Roundup
Issued by NWS

Home | Current Version | Previous Version | Graphics & Text | Print | Product List | Glossary On
Versions: 1 2 3 4 5 6 7 8 9 10 11 12 13 14 15 16 17 18 19 20 21 22 23 24 25 26 27 28 29 30 31 32 33 34 35 36 37 38 39 40 41 42 43 44 45 46 47 48 49 50
000
ASUS44 KMEG 280710
RWRTN
TENNESSEE HOURLY STATE WEATHER ROUNDUP
NATIONAL WEATHER SERVICE MEMPHIS TN
100 AM CST WED JAN 28 2015

TNZ002-004-019-021-049-052-054-088>092-280800-
WEST TENNESSEE

CITY           SKY/WX    TMP DP  RH WIND       PRES   REMARKS
MEMPHIS INTL   CLEAR     42  31  64 SE3       30.23R
NWS MEMPHIS      N/A     37 N/A N/A MISG        N/A
JACKSON        CLEAR     31  26  82 CALM      30.23S
DYERSBURG      CLEAR     34  18  51 CALM      30.26S
UNION CITY     CLEAR     30  27  86 E3        30.22S
PARIS          CLEAR     27  23  86 E5        30.23F WCI  21
LEXINGTON      CLEAR     30  27  86 NE5       30.21S WCI  25
SAVANNAH         N/A     27  27 100 CALM      30.23F
$$

TNZ008-025-027-028-033-062-065-066-280800-
NORTH MIDDLE TENNESSEE

CITY           SKY/WX    TMP DP  RH WIND       PRES   REMARKS
NASHVILLE      CLOUDY    34  28  79 N5        30.24S WCI  30
CLARKSVILLE    CLOUDY    31  29  92 N6        30.25S WCI  25
SMYRNA         CLOUDY    34  28  79 N9        30.25F WCI  27
COOKEVILLE     MOCLDY    30  27  86 CALM      30.19R
CROSSVILLE     CLOUDY    29  24  82 N6        30.15S WCI  23
$$

TNZ061-075-076-078-094-096-097-280800-
SOUTH MIDDLE TENNESSEE

CITY           SKY/WX    TMP DP  RH WIND       PRES   REMARKS
FAYETTEVILLE   CLOUDY    32  25  74 N16       30.18F WCI  21
TULLAHOMA      CLOUDY    32  25  74 N8        30.20S WCI  25
WINCHESTER     CLOUDY    32  27  80 N8        30.20S WCI  25
MCMINNVILLE    CLOUDY    32  28  86 N7        30.19S WCI  26
COLUMBIA       CLOUDY    36  30  80 NE8       30.20F WCI  29
SHELBYVILLE    CLOUDY    34  30  86 N5        30.22S WCI  30
$$

TNZ017-018-042-046-047-280800-
NORTHEAST TENNESSEE

CITY           SKY/WX    TMP DP  RH WIND       PRES   REMARKS
TRI CITIES     CLEAR     24   7  48 NW5       30.16R WCI  18
ELIZABETHTON   SUNNY     19  10  68 CALM      30.14R
$$

TNZ012-013-036-069-073-074-280800-
CENTRAL EAST TENNESSEE

CITY           SKY/WX    TMP DP  RH WIND       PRES   REMARKS
KNOXVILLE      PTCLDY    29  19  66 NE6       30.19R WCI  23
OAK RIDGE      CLOUDY    32  20  61 VRB5      30.21R WCI  27
GATLINBURG     SUNNY     25  19  80 CALM      30.18F
MORRISTOWN     SUNNY     28  18  64 NW3       30.18R
$$

TNZ083-085-099-280800-
SOUTHEAST TENNESSEE

CITY           SKY/WX    TMP DP  RH WIND       PRES   REMARKS
CHATTANOOGA    CLOUDY    36  25  64 NW13      30.19R WCI  27
$$

SKY/WX REPORTED AS FAIR MEANS FEW OR NO CLOUDS BELOW
12 THOUSAND FEET.




USA.gov is the U.S. government's official web portal to all federal, state and local government web resources and services.